Вернуться в каталог

TOM-3

АктивенНаукаSSO
NORAD 69906·PAYLOAD·🇬🇷 Greece

Запущен Jul 7, 2026 с Vandenberg Space Force Base

Loading…

Ближайшие Пролёты (ближайшие 24 часа)

TLE

СвежийSource: Space-Track

Эпоха: Sep 14, 2026, 12:48 UTC

1 69906U 26156AP  26257.53359357  .00001086  00000-0  11559-3 0  9991
2 69906  97.7394 156.6948 0002623 253.8401 106.2529 14.90962516 10319

Отслеживайте TOM-3 в реальном времени с AllMySat

Download on the App Store